Year,Month,Day,Hour,Minute,Value (Times are PST for temperature in C)
2007,05,31,00,00,15.00
2007,05,31,00,01,15.00
2007,05,31,00,02,15.00
2007,05,31,00,03,15.00
2007,05,31,00,04,15.00
2007,05,31,00,05,14.90
2007,05,31,00,06,14.90
2007,05,31,00,07,14.90
2007,05,31,00,08,14.80
2007,05,31,00,09,14.80
2007,05,31,00,10,14.70
2007,05,31,00,11,14.70
2007,05,31,00,12,14.60
2007,05,31,00,13,14.50
2007,05,31,00,14,14.50
2007,05,31,00,15,14.40
2007,05,31,00,16,14.40
2007,05,31,00,17,14.40
2007,05,31,00,18,14.30
2007,05,31,00,19,14.30
2007,05,31,00,20,14.30
2007,05,31,00,21,14.30
2007,05,31,00,22,14.30
2007,05,31,00,23,14.30
2007,05,31,00,24,14.20
2007,05,31,00,25,14.20
2007,05,31,00,26,14.20
2007,05,31,00,27,14.20
2007,05,31,00,28,14.20
2007,05,31,00,29,14.20
2007,05,31,00,30,14.20
2007,05,31,00,31,14.20
2007,05,31,00,32,14.20
2007,05,31,00,33,14.20
2007,05,31,00,34,14.20
2007,05,31,00,35,14.20
2007,05,31,00,36,14.20
2007,05,31,00,37,14.10
2007,05,31,00,38,14.10
2007,05,31,00,39,14.10
2007,05,31,00,40,14.10
2007,05,31,00,41,14.10
2007,05,31,00,42,14.10
2007,05,31,00,43,14.10
2007,05,31,00,44,14.10
2007,05,31,00,45,14.10
2007,05,31,00,46,14.10
2007,05,31,00,47,14.10
2007,05,31,00,48,14.10
2007,05,31,00,49,14.10
2007,05,31,00,50,14.10
2007,05,31,00,51,14.10
2007,05,31,00,52,14.10
2007,05,31,00,53,14.10
2007,05,31,00,54,14.10
2007,05,31,00,55,14.10
2007,05,31,00,56,14.10
2007,05,31,00,57,14.10
2007,05,31,00,58,14.00
2007,05,31,00,59,14.00
2007,05,31,01,00,14.00
2007,05,31,01,01,14.00
2007,05,31,01,02,14.00
2007,05,31,01,03,14.00
2007,05,31,01,04,14.00
2007,05,31,01,05,14.00
2007,05,31,01,06,14.10
2007,05,31,01,07,14.10
2007,05,31,01,08,14.10
2007,05,31,01,09,14.10
2007,05,31,01,10,14.10
2007,05,31,01,11,14.10
2007,05,31,01,12,14.10
2007,05,31,01,13,14.10
2007,05,31,01,14,14.10
2007,05,31,01,15,14.10
2007,05,31,01,16,14.10
2007,05,31,01,17,14.10
2007,05,31,01,18,14.00
2007,05,31,01,19,14.00
2007,05,31,01,20,14.00
2007,05,31,01,21,13.90
2007,05,31,01,22,13.90
2007,05,31,01,23,13.80
2007,05,31,01,24,13.80
2007,05,31,01,25,13.80
2007,05,31,01,26,13.80
2007,05,31,01,27,13.70
2007,05,31,01,28,13.70
2007,05,31,01,29,13.70
2007,05,31,01,30,13.60
2007,05,31,01,31,13.60
2007,05,31,01,32,13.60
2007,05,31,01,33,13.50
2007,05,31,01,34,13.50
2007,05,31,01,35,13.50
2007,05,31,01,36,13.40
2007,05,31,01,37,13.40
2007,05,31,01,38,13.40
2007,05,31,01,39,13.40
2007,05,31,01,40,13.40
2007,05,31,01,41,13.40
2007,05,31,01,42,13.40
2007,05,31,01,43,13.50
2007,05,31,01,44,13.50
2007,05,31,01,45,13.50
2007,05,31,01,46,13.40
2007,05,31,01,47,13.50
2007,05,31,01,48,13.40
2007,05,31,01,49,13.40
2007,05,31,01,50,13.40
2007,05,31,01,51,13.40
2007,05,31,01,52,13.40
2007,05,31,01,53,13.40
2007,05,31,01,54,13.40
2007,05,31,01,55,13.40
2007,05,31,01,56,13.40
2007,05,31,01,57,13.40
2007,05,31,01,58,13.40
2007,05,31,01,59,13.40
2007,05,31,02,00,13.40
2007,05,31,02,01,13.30
2007,05,31,02,02,13.30
2007,05,31,02,03,13.30
2007,05,31,02,04,13.30
2007,05,31,02,05,13.30
2007,05,31,02,06,13.30
2007,05,31,02,07,13.30
2007,05,31,02,08,13.30
2007,05,31,02,09,13.30
2007,05,31,02,10,13.20
2007,05,31,02,11,13.20
2007,05,31,02,12,13.20
2007,05,31,02,13,13.20
2007,05,31,02,14,13.10
2007,05,31,02,15,13.10
2007,05,31,02,16,13.10
2007,05,31,02,17,13.10
2007,05,31,02,18,13.10
2007,05,31,02,19,13.10
2007,05,31,02,20,13.10
2007,05,31,02,21,13.10
2007,05,31,02,22,13.00
2007,05,31,02,23,13.00
2007,05,31,02,24,13.10
2007,05,31,02,25,13.10
2007,05,31,02,26,13.10
2007,05,31,02,27,13.10
2007,05,31,02,28,13.10
2007,05,31,02,29,13.00
2007,05,31,02,30,13.00
2007,05,31,02,31,13.00
2007,05,31,02,32,13.00
2007,05,31,02,33,13.00
2007,05,31,02,34,12.90
2007,05,31,02,35,12.90
2007,05,31,02,36,12.90
2007,05,31,02,37,12.90
2007,05,31,02,38,12.90
2007,05,31,02,39,12.90
2007,05,31,02,40,12.80
2007,05,31,02,41,12.80
2007,05,31,02,42,12.80
2007,05,31,02,43,12.80
2007,05,31,02,44,12.80
2007,05,31,02,45,12.70
2007,05,31,02,46,12.70
2007,05,31,02,47,12.70
2007,05,31,02,48,12.60
2007,05,31,02,49,12.60
2007,05,31,02,50,12.60
2007,05,31,02,51,12.60
2007,05,31,02,52,12.60
2007,05,31,02,53,12.60
2007,05,31,02,54,12.60
2007,05,31,02,55,12.60
2007,05,31,02,56,12.60
2007,05,31,02,57,12.60
2007,05,31,02,58,12.60
2007,05,31,02,59,12.50
2007,05,31,03,00,12.50
2007,05,31,03,01,12.50
2007,05,31,03,02,12.50
2007,05,31,03,03,12.50
2007,05,31,03,04,12.50
2007,05,31,03,05,12.50
2007,05,31,03,06,12.50
2007,05,31,03,07,12.50
2007,05,31,03,08,12.40
2007,05,31,03,09,12.40
2007,05,31,03,10,12.40
2007,05,31,03,11,12.40
2007,05,31,03,12,12.40
2007,05,31,03,13,12.40
2007,05,31,03,14,12.40
2007,05,31,03,15,12.40
2007,05,31,03,16,12.50
2007,05,31,03,17,12.50
2007,05,31,03,18,12.40
2007,05,31,03,19,12.40
2007,05,31,03,20,12.40
2007,05,31,03,21,12.30
2007,05,31,03,22,12.30
2007,05,31,03,23,12.30
2007,05,31,03,24,12.20
2007,05,31,03,25,12.20
2007,05,31,03,26,12.20
2007,05,31,03,27,12.20
2007,05,31,03,28,12.20
2007,05,31,03,29,12.30
2007,05,31,03,30,12.30
2007,05,31,03,31,12.30
2007,05,31,03,32,12.30
2007,05,31,03,33,12.30
2007,05,31,03,34,12.30
2007,05,31,03,35,12.30
2007,05,31,03,36,12.30
2007,05,31,03,37,12.30
2007,05,31,03,38,12.30
2007,05,31,03,39,12.30
2007,05,31,03,40,12.30
2007,05,31,03,41,12.30
2007,05,31,03,42,12.30
2007,05,31,03,43,12.20
2007,05,31,03,44,12.20
2007,05,31,03,45,12.20
2007,05,31,03,46,12.20
2007,05,31,03,47,12.20
2007,05,31,03,48,12.20
2007,05,31,03,49,12.20
2007,05,31,03,50,12.20
2007,05,31,03,51,12.10
2007,05,31,03,52,12.10
2007,05,31,03,53,12.10
2007,05,31,03,54,12.00
2007,05,31,03,55,12.00
2007,05,31,03,56,12.00
2007,05,31,03,57,12.00
2007,05,31,03,58,12.00
2007,05,31,03,59,11.90
2007,05,31,04,00,11.90
2007,05,31,04,01,12.00
2007,05,31,04,02,11.90
2007,05,31,04,03,11.90
2007,05,31,04,04,12.00
2007,05,31,04,05,11.90
2007,05,31,04,06,11.90
2007,05,31,04,07,11.90
2007,05,31,04,08,11.90
2007,05,31,04,09,11.90
2007,05,31,04,10,11.80
2007,05,31,04,11,11.80
2007,05,31,04,12,11.80
2007,05,31,04,13,11.80
2007,05,31,04,14,11.70
2007,05,31,04,15,11.70
2007,05,31,04,16,11.60
2007,05,31,04,17,11.60
2007,05,31,04,18,11.50
2007,05,31,04,19,11.50
2007,05,31,04,20,11.40
2007,05,31,04,21,11.40
2007,05,31,04,22,11.40
2007,05,31,04,23,11.40
2007,05,31,04,24,11.40
2007,05,31,04,25,11.30
2007,05,31,04,26,11.30
2007,05,31,04,27,11.30
2007,05,31,04,28,11.30
2007,05,31,04,29,11.30
2007,05,31,04,30,11.30
2007,05,31,04,31,11.20
2007,05,31,04,32,11.20
2007,05,31,04,33,11.20
2007,05,31,04,34,11.20
2007,05,31,04,35,11.20
2007,05,31,04,36,11.20
2007,05,31,04,37,11.20
2007,05,31,04,38,11.20
2007,05,31,04,39,11.20
2007,05,31,04,40,11.20
2007,05,31,04,41,11.20
2007,05,31,04,42,11.10
2007,05,31,04,43,11.10
2007,05,31,04,44,11.10
2007,05,31,04,45,11.10
2007,05,31,04,46,11.10
2007,05,31,04,47,11.10
2007,05,31,04,48,11.10
2007,05,31,04,49,11.10
2007,05,31,04,50,11.10
2007,05,31,04,51,11.10
2007,05,31,04,52,11.10
2007,05,31,04,53,11.10
2007,05,31,04,54,11.00
2007,05,31,04,55,11.00
2007,05,31,04,56,11.00
2007,05,31,04,57,11.00
2007,05,31,04,58,11.00
2007,05,31,04,59,10.90
2007,05,31,05,00,10.90
2007,05,31,05,01,10.90
2007,05,31,05,02,10.90
2007,05,31,05,03,10.90
2007,05,31,05,04,10.90
2007,05,31,05,05,10.90
2007,05,31,05,06,10.90
2007,05,31,05,07,10.90
2007,05,31,05,08,10.90
2007,05,31,05,09,10.80
2007,05,31,05,10,10.80
2007,05,31,05,11,10.80
2007,05,31,05,12,10.90
2007,05,31,05,13,10.90
2007,05,31,05,14,10.90
2007,05,31,05,15,10.90
2007,05,31,05,16,10.90
2007,05,31,05,17,10.80
2007,05,31,05,18,10.80
2007,05,31,05,19,10.80
2007,05,31,05,20,10.80
2007,05,31,05,21,10.80
2007,05,31,05,22,10.70
2007,05,31,05,23,10.70
2007,05,31,05,24,10.70
2007,05,31,05,25,10.60
2007,05,31,05,26,10.60
2007,05,31,05,27,10.50
2007,05,31,05,28,10.50
2007,05,31,05,29,10.50
2007,05,31,05,30,10.50
2007,05,31,05,31,10.40
2007,05,31,05,32,10.40
2007,05,31,05,33,10.40
2007,05,31,05,34,10.40
2007,05,31,05,35,10.40
2007,05,31,05,36,10.40
2007,05,31,05,37,10.40
2007,05,31,05,38,10.50
2007,05,31,05,39,10.50
2007,05,31,05,40,10.50
2007,05,31,05,41,10.50
2007,05,31,05,42,10.50
2007,05,31,05,43,10.50
2007,05,31,05,44,10.50
2007,05,31,05,45,10.50
2007,05,31,05,46,10.50
2007,05,31,05,47,10.50
2007,05,31,05,48,10.50
2007,05,31,05,49,10.50
2007,05,31,05,50,10.50
2007,05,31,05,51,10.60
2007,05,31,05,52,10.60
2007,05,31,05,53,10.60
2007,05,31,05,54,10.60
2007,05,31,05,55,10.60
2007,05,31,05,56,10.60
2007,05,31,05,57,10.60
2007,05,31,05,58,10.70
2007,05,31,05,59,10.70
2007,05,31,06,00,10.70
2007,05,31,06,01,10.70
2007,05,31,06,02,10.70
2007,05,31,06,03,10.80
2007,05,31,06,04,10.80
2007,05,31,06,05,10.80
2007,05,31,06,06,10.80
2007,05,31,06,07,10.80
2007,05,31,06,08,10.80
2007,05,31,06,09,10.80
2007,05,31,06,10,10.90
2007,05,31,06,11,10.90
2007,05,31,06,12,10.90
2007,05,31,06,13,10.90
2007,05,31,06,14,10.90
2007,05,31,06,15,10.90
2007,05,31,06,16,10.90
2007,05,31,06,17,10.90
2007,05,31,06,18,10.90
2007,05,31,06,19,10.90
2007,05,31,06,20,10.90
2007,05,31,06,21,10.90
2007,05,31,06,22,10.90
2007,05,31,06,23,11.00
2007,05,31,06,24,11.00
2007,05,31,06,25,11.10
2007,05,31,06,26,11.10
2007,05,31,06,27,11.20
2007,05,31,06,28,11.20
2007,05,31,06,29,11.20
2007,05,31,06,30,11.30
2007,05,31,06,31,11.30
2007,05,31,06,32,11.40
2007,05,31,06,33,11.50
2007,05,31,06,34,11.60
2007,05,31,06,35,11.70
2007,05,31,06,36,11.70
2007,05,31,06,37,11.80
2007,05,31,06,38,11.90
2007,05,31,06,39,11.90
2007,05,31,06,40,12.00
2007,05,31,06,41,12.00
2007,05,31,06,42,12.00
2007,05,31,06,43,12.10
2007,05,31,06,44,12.10
2007,05,31,06,45,12.10
2007,05,31,06,46,12.10
2007,05,31,06,47,12.10
2007,05,31,06,48,12.20
2007,05,31,06,49,12.20
2007,05,31,06,50,12.20
2007,05,31,06,51,12.30
2007,05,31,06,52,12.30
2007,05,31,06,53,12.30
2007,05,31,06,54,12.30
2007,05,31,06,55,12.40
2007,05,31,06,56,12.50
2007,05,31,06,57,12.60
2007,05,31,06,58,12.70
2007,05,31,06,59,12.70
2007,05,31,07,00,12.80
2007,05,31,07,01,12.80
2007,05,31,07,02,12.90
2007,05,31,07,03,13.00
2007,05,31,07,04,13.10
2007,05,31,07,05,13.20
2007,05,31,07,06,13.30
2007,05,31,07,07,13.50
2007,05,31,07,08,13.60
2007,05,31,07,09,13.70
2007,05,31,07,10,13.80
2007,05,31,07,11,13.90
2007,05,31,07,12,14.00
2007,05,31,07,13,14.10
2007,05,31,07,14,14.10
2007,05,31,07,15,14.10
2007,05,31,07,16,14.20
2007,05,31,07,17,14.20
2007,05,31,07,18,14.20
2007,05,31,07,19,14.20
2007,05,31,07,20,14.30
2007,05,31,07,21,14.30
2007,05,31,07,22,14.30
2007,05,31,07,23,14.30
2007,05,31,07,24,14.30
2007,05,31,07,25,14.30
2007,05,31,07,26,14.40
2007,05,31,07,27,14.40
2007,05,31,07,28,14.40
2007,05,31,07,29,14.50
2007,05,31,07,30,14.60
2007,05,31,07,31,14.60
2007,05,31,07,32,14.70
2007,05,31,07,33,14.80
2007,05,31,07,34,14.80
2007,05,31,07,35,14.80
2007,05,31,07,36,14.80
2007,05,31,07,37,14.80
2007,05,31,07,38,14.80
2007,05,31,07,39,14.80
2007,05,31,07,40,14.80
2007,05,31,07,41,14.80
2007,05,31,07,42,14.80
2007,05,31,07,43,14.80
2007,05,31,07,44,14.90
2007,05,31,07,45,15.00
2007,05,31,07,46,15.00
2007,05,31,07,47,15.00
2007,05,31,07,48,15.00
2007,05,31,07,49,15.00
2007,05,31,07,50,15.00
2007,05,31,07,51,15.20
2007,05,31,07,52,15.30
2007,05,31,07,53,15.30
2007,05,31,07,54,15.40
2007,05,31,07,55,15.50
2007,05,31,07,56,15.50
2007,05,31,07,57,15.60
2007,05,31,07,58,15.60
2007,05,31,07,59,15.60
2007,05,31,08,00,15.60
2007,05,31,08,01,15.60
2007,05,31,08,02,15.70
2007,05,31,08,03,15.70
2007,05,31,08,04,15.70
2007,05,31,08,05,15.80
2007,05,31,08,06,15.90
2007,05,31,08,07,15.90
2007,05,31,08,08,16.00
2007,05,31,08,09,16.10
2007,05,31,08,10,16.20
2007,05,31,08,11,16.20
2007,05,31,08,12,16.30
2007,05,31,08,13,16.30
2007,05,31,08,14,16.30
2007,05,31,08,15,16.40
2007,05,31,08,16,16.50
2007,05,31,08,17,16.50
2007,05,31,08,18,16.60
2007,05,31,08,19,16.70
2007,05,31,08,20,16.70
2007,05,31,08,21,16.70
2007,05,31,08,22,16.70
2007,05,31,08,23,16.70
2007,05,31,08,24,16.70
2007,05,31,08,25,16.70
2007,05,31,08,26,16.70
2007,05,31,08,27,16.70
2007,05,31,08,28,16.70
2007,05,31,08,29,16.80
2007,05,31,08,30,16.90
2007,05,31,08,31,16.90
2007,05,31,08,32,17.00
2007,05,31,08,33,17.00
2007,05,31,08,34,17.00
2007,05,31,08,35,17.10
2007,05,31,08,36,17.20
2007,05,31,08,37,17.20
2007,05,31,08,38,17.20
2007,05,31,08,39,17.30
2007,05,31,08,40,17.50
2007,05,31,08,41,17.60
2007,05,31,08,42,17.70
2007,05,31,08,43,17.70
2007,05,31,08,44,17.80
2007,05,31,08,45,17.90
2007,05,31,08,46,18.00
2007,05,31,08,47,18.10
2007,05,31,08,48,18.20
2007,05,31,08,49,18.20
2007,05,31,08,50,18.20
2007,05,31,08,51,18.20
2007,05,31,08,52,18.20
2007,05,31,08,53,18.20
2007,05,31,08,54,18.30
2007,05,31,08,55,18.30
2007,05,31,08,56,18.40
2007,05,31,08,57,18.40
2007,05,31,08,58,18.50
2007,05,31,08,59,18.60
2007,05,31,09,00,18.60
2007,05,31,09,01,18.70
2007,05,31,09,02,18.70
2007,05,31,09,03,18.80
2007,05,31,09,04,18.80
2007,05,31,09,05,18.80
2007,05,31,09,06,18.90
2007,05,31,09,07,18.90
2007,05,31,09,08,18.90
2007,05,31,09,09,19.00
2007,05,31,09,10,19.00
2007,05,31,09,11,19.10
2007,05,31,09,12,19.20
2007,05,31,09,13,19.30
2007,05,31,09,14,19.30
2007,05,31,09,15,19.30
2007,05,31,09,16,19.30
2007,05,31,09,17,19.30
2007,05,31,09,18,19.30
2007,05,31,09,19,19.20
2007,05,31,09,20,19.20
2007,05,31,09,21,19.20
2007,05,31,09,22,19.30
2007,05,31,09,23,19.30
2007,05,31,09,24,19.40
2007,05,31,09,25,19.40
2007,05,31,09,26,19.40
2007,05,31,09,27,19.30
2007,05,31,09,28,19.20
2007,05,31,09,29,19.20
2007,05,31,09,30,19.20
2007,05,31,09,31,19.30
2007,05,31,09,32,19.30
2007,05,31,09,33,19.40
2007,05,31,09,34,19.50
2007,05,31,09,35,19.50
2007,05,31,09,36,19.50
2007,05,31,09,37,19.60
2007,05,31,09,38,19.60
2007,05,31,09,39,19.60
2007,05,31,09,40,19.60
2007,05,31,09,41,19.70
2007,05,31,09,42,19.70
2007,05,31,09,43,19.80
2007,05,31,09,44,19.70
2007,05,31,09,45,19.70
2007,05,31,09,46,19.70
2007,05,31,09,47,19.70
2007,05,31,09,48,19.70
2007,05,31,09,49,19.70
2007,05,31,09,50,19.80
2007,05,31,09,51,19.80
2007,05,31,09,52,19.80
2007,05,31,09,53,19.90
2007,05,31,09,54,19.90
2007,05,31,09,55,19.90
2007,05,31,09,56,20.00
2007,05,31,09,57,20.00
2007,05,31,09,58,20.00
2007,05,31,09,59,20.00
2007,05,31,10,00,20.10
2007,05,31,10,01,20.10
2007,05,31,10,02,20.20
2007,05,31,10,03,20.20
2007,05,31,10,04,20.30
2007,05,31,10,05,20.30
2007,05,31,10,06,20.20
2007,05,31,10,07,20.20
2007,05,31,10,08,20.30
2007,05,31,10,09,20.20
2007,05,31,10,10,20.10
2007,05,31,10,11,20.00
2007,05,31,10,12,19.90
2007,05,31,10,13,20.00
2007,05,31,10,14,20.00
2007,05,31,10,15,20.10
2007,05,31,10,16,20.10
2007,05,31,10,17,20.30
2007,05,31,10,18,20.40
2007,05,31,10,19,20.40
2007,05,31,10,20,20.40
2007,05,31,10,21,20.30
2007,05,31,10,22,20.20
2007,05,31,10,23,20.20
2007,05,31,10,24,20.20
2007,05,31,10,25,20.20
2007,05,31,10,26,20.10
2007,05,31,10,27,20.10
2007,05,31,10,28,20.10
2007,05,31,10,29,20.10
2007,05,31,10,30,20.10
2007,05,31,10,31,20.10
2007,05,31,10,32,20.20
2007,05,31,10,33,20.20
2007,05,31,10,34,20.20
2007,05,31,10,35,20.10
2007,05,31,10,36,20.10
2007,05,31,10,37,20.10
2007,05,31,10,38,20.10
2007,05,31,10,39,20.10
2007,05,31,10,40,20.10
2007,05,31,10,41,20.20
2007,05,31,10,42,20.30
2007,05,31,10,43,20.30
2007,05,31,10,44,20.40
2007,05,31,10,45,20.40
2007,05,31,10,46,20.30
2007,05,31,10,47,20.40
2007,05,31,10,48,20.40
2007,05,31,10,49,20.40
2007,05,31,10,50,20.40
2007,05,31,10,51,20.50
2007,05,31,10,52,20.50
2007,05,31,10,53,20.60
2007,05,31,10,54,20.70
2007,05,31,10,55,20.70
2007,05,31,10,56,20.60
2007,05,31,10,57,20.50
2007,05,31,10,58,20.40
2007,05,31,10,59,20.40
2007,05,31,11,00,20.30
2007,05,31,11,01,20.30
2007,05,31,11,02,20.30
2007,05,31,11,03,20.30
2007,05,31,11,04,20.20
2007,05,31,11,05,20.10
2007,05,31,11,06,20.00
2007,05,31,11,07,20.00
2007,05,31,11,08,19.90
2007,05,31,11,09,19.90
2007,05,31,11,10,19.90
2007,05,31,11,11,19.80
2007,05,31,11,12,19.80
2007,05,31,11,13,19.70
2007,05,31,11,14,19.60
2007,05,31,11,15,19.60
2007,05,31,11,16,19.50
2007,05,31,11,17,19.40
2007,05,31,11,18,19.30
2007,05,31,11,19,19.30
2007,05,31,11,20,19.40
2007,05,31,11,21,19.40
2007,05,31,11,22,19.30
2007,05,31,11,23,19.40
2007,05,31,11,24,19.50
2007,05,31,11,25,19.70
2007,05,31,11,26,19.70
2007,05,31,11,27,19.70
2007,05,31,11,28,19.70
2007,05,31,11,29,19.70
2007,05,31,11,30,19.60
2007,05,31,11,31,19.40
2007,05,31,11,32,19.30
2007,05,31,11,33,19.20
2007,05,31,11,34,19.10
2007,05,31,11,35,19.10
2007,05,31,11,36,19.20
2007,05,31,11,37,19.20
2007,05,31,11,38,19.20
2007,05,31,11,39,19.20
2007,05,31,11,40,19.30
2007,05,31,11,41,19.50
2007,05,31,11,42,19.60
2007,05,31,11,43,19.60
2007,05,31,11,44,19.60
2007,05,31,11,45,19.60
2007,05,31,11,46,19.60
2007,05,31,11,47,19.70
2007,05,31,11,48,19.70
2007,05,31,11,49,19.60
2007,05,31,11,50,19.70
2007,05,31,11,51,19.70
2007,05,31,11,52,19.50
2007,05,31,11,53,19.40
2007,05,31,11,54,19.40
2007,05,31,11,55,19.40
2007,05,31,11,56,19.50
2007,05,31,11,57,19.60
2007,05,31,11,58,19.60
2007,05,31,11,59,19.50
2007,05,31,12,00,19.50
2007,05,31,12,01,19.70
2007,05,31,12,02,19.70
2007,05,31,12,03,19.70
2007,05,31,12,04,19.60
2007,05,31,12,05,19.50
2007,05,31,12,06,19.40
2007,05,31,12,07,19.30
2007,05,31,12,08,19.30
2007,05,31,12,09,19.40
2007,05,31,12,10,19.50
2007,05,31,12,11,19.50
2007,05,31,12,12,19.40
2007,05,31,12,13,19.30
2007,05,31,12,14,19.40
2007,05,31,12,15,19.30
2007,05,31,12,16,19.30
2007,05,31,12,17,19.20
2007,05,31,12,18,19.20
2007,05,31,12,19,19.10
2007,05,31,12,20,19.10
2007,05,31,12,21,19.10
2007,05,31,12,22,19.00
2007,05,31,12,23,18.90
2007,05,31,12,24,18.90
2007,05,31,12,25,18.90
2007,05,31,12,26,18.90
2007,05,31,12,27,18.90
2007,05,31,12,28,19.00
2007,05,31,12,29,19.00
2007,05,31,12,30,19.10
2007,05,31,12,31,19.20
2007,05,31,12,32,19.30
2007,05,31,12,33,19.20
2007,05,31,12,34,19.20
2007,05,31,12,35,19.20
2007,05,31,12,36,19.10
2007,05,31,12,37,19.10
2007,05,31,12,38,19.20
2007,05,31,12,39,19.30
2007,05,31,12,40,19.30
2007,05,31,12,41,19.30
2007,05,31,12,42,19.30
2007,05,31,12,43,19.30
2007,05,31,12,44,19.30
2007,05,31,12,45,19.30
2007,05,31,12,46,19.20
2007,05,31,12,47,19.10
2007,05,31,12,48,19.00
2007,05,31,12,49,19.00
2007,05,31,12,50,19.00
2007,05,31,12,51,19.10
2007,05,31,12,52,19.10
2007,05,31,12,53,19.10
2007,05,31,12,54,19.10
2007,05,31,12,55,19.30
2007,05,31,12,56,19.30
2007,05,31,12,57,19.30
2007,05,31,12,58,19.40
2007,05,31,12,59,19.50
2007,05,31,13,00,19.60
2007,05,31,13,01,19.70
2007,05,31,13,02,19.80
2007,05,31,13,03,19.80
2007,05,31,13,04,19.80
2007,05,31,13,05,19.70
2007,05,31,13,06,19.70
2007,05,31,13,07,19.70
2007,05,31,13,08,19.70
2007,05,31,13,09,19.70
2007,05,31,13,10,19.70
2007,05,31,13,11,19.70
2007,05,31,13,12,19.80
2007,05,31,13,13,20.00
2007,05,31,13,14,20.00
2007,05,31,13,15,20.00
2007,05,31,13,16,19.90
2007,05,31,13,17,19.80
2007,05,31,13,18,19.60
2007,05,31,13,19,19.70
2007,05,31,13,20,19.60
2007,05,31,13,21,19.60
2007,05,31,13,22,19.70
2007,05,31,13,23,19.80
2007,05,31,13,24,19.80
2007,05,31,13,25,19.70
2007,05,31,13,26,19.70
2007,05,31,13,27,19.70
2007,05,31,13,28,19.70
2007,05,31,13,29,19.80
2007,05,31,13,30,19.80
2007,05,31,13,31,19.90
2007,05,31,13,32,19.90
2007,05,31,13,33,19.90
2007,05,31,13,34,19.80
2007,05,31,13,35,19.90
2007,05,31,13,36,20.00
2007,05,31,13,37,20.00
2007,05,31,13,38,20.00
2007,05,31,13,39,20.00
2007,05,31,13,40,20.10
2007,05,31,13,41,20.10
2007,05,31,13,42,20.20
2007,05,31,13,43,20.20
2007,05,31,13,44,20.20
2007,05,31,13,45,20.20
2007,05,31,13,46,20.30
2007,05,31,13,47,20.40
2007,05,31,13,48,20.40
2007,05,31,13,49,20.40
2007,05,31,13,50,20.60
2007,05,31,13,51,20.70
2007,05,31,13,52,20.80
2007,05,31,13,53,20.90
2007,05,31,13,54,21.10
2007,05,31,13,55,21.20
2007,05,31,13,56,21.10
2007,05,31,13,57,21.00
2007,05,31,13,58,21.00
2007,05,31,13,59,20.90
2007,05,31,14,00,20.90
2007,05,31,14,01,20.90
2007,05,31,14,02,20.90
2007,05,31,14,03,20.90
2007,05,31,14,04,20.90
2007,05,31,14,05,21.00
2007,05,31,14,06,21.00
2007,05,31,14,07,21.10
2007,05,31,14,08,21.30
2007,05,31,14,09,21.30
2007,05,31,14,10,21.20
2007,05,31,14,11,21.10
2007,05,31,14,12,21.20
2007,05,31,14,13,21.30
2007,05,31,14,14,21.30
2007,05,31,14,15,21.30
2007,05,31,14,16,21.40
2007,05,31,14,17,21.40
2007,05,31,14,18,21.40
2007,05,31,14,19,21.30
2007,05,31,14,20,21.40
2007,05,31,14,21,21.50
2007,05,31,14,22,21.50
2007,05,31,14,23,21.70
2007,05,31,14,24,21.90
2007,05,31,14,25,22.00
2007,05,31,14,26,21.90
2007,05,31,14,27,21.80
2007,05,31,14,28,21.70
2007,05,31,14,29,21.60
2007,05,31,14,30,21.50
2007,05,31,14,31,21.60
2007,05,31,14,32,21.60
2007,05,31,14,33,21.70
2007,05,31,14,34,21.70
2007,05,31,14,35,21.70
2007,05,31,14,36,21.70
2007,05,31,14,37,21.80
2007,05,31,14,38,21.70
2007,05,31,14,39,21.70
2007,05,31,14,40,21.50
2007,05,31,14,41,21.30
2007,05,31,14,42,21.40
2007,05,31,14,43,21.50
2007,05,31,14,44,21.70
2007,05,31,14,45,21.80
2007,05,31,14,46,22.00
2007,05,31,14,47,22.00
2007,05,31,14,48,21.90
2007,05,31,14,49,21.80
2007,05,31,14,50,21.60
2007,05,31,14,51,21.40
2007,05,31,14,52,21.20
2007,05,31,14,53,21.10
2007,05,31,14,54,21.10
2007,05,31,14,55,21.00
2007,05,31,14,56,21.00
2007,05,31,14,57,20.90
2007,05,31,14,58,20.80
2007,05,31,14,59,20.80
2007,05,31,15,00,20.80
2007,05,31,15,01,20.90
2007,05,31,15,02,20.90
2007,05,31,15,03,21.00
2007,05,31,15,04,21.20
2007,05,31,15,05,21.30
2007,05,31,15,06,21.20
2007,05,31,15,07,21.10
2007,05,31,15,08,21.00
2007,05,31,15,09,20.80
2007,05,31,15,10,20.60
2007,05,31,15,11,20.50
2007,05,31,15,12,20.50
2007,05,31,15,13,20.50
2007,05,31,15,14,20.50
2007,05,31,15,15,20.60
2007,05,31,15,16,20.70
2007,05,31,15,17,20.80
2007,05,31,15,18,20.60
2007,05,31,15,19,20.30
2007,05,31,15,20,19.90
2007,05,31,15,21,19.60
2007,05,31,15,22,19.40
2007,05,31,15,23,19.20
2007,05,31,15,24,19.20
2007,05,31,15,25,19.20
2007,05,31,15,26,19.30
2007,05,31,15,27,19.40
2007,05,31,15,28,19.50
2007,05,31,15,29,19.60
2007,05,31,15,30,19.50
2007,05,31,15,31,19.50
2007,05,31,15,32,19.40
2007,05,31,15,33,19.40
2007,05,31,15,34,19.40
2007,05,31,15,35,19.30
2007,05,31,15,36,19.20
2007,05,31,15,37,19.00
2007,05,31,15,38,18.90
2007,05,31,15,39,18.70
2007,05,31,15,40,18.50
2007,05,31,15,41,18.40
2007,05,31,15,42,18.30
2007,05,31,15,43,18.20
2007,05,31,15,44,18.20
2007,05,31,15,45,18.20
2007,05,31,15,46,18.30
2007,05,31,15,47,18.50
2007,05,31,15,48,18.60
2007,05,31,15,49,18.60
2007,05,31,15,50,18.60
2007,05,31,15,51,18.70
2007,05,31,15,52,18.90
2007,05,31,15,53,19.00
2007,05,31,15,54,19.00
2007,05,31,15,55,18.80
2007,05,31,15,56,18.70
2007,05,31,15,57,18.60
2007,05,31,15,58,18.60
2007,05,31,15,59,18.60
2007,05,31,16,00,18.60
2007,05,31,16,01,18.70
2007,05,31,16,02,18.70
2007,05,31,16,03,18.60
2007,05,31,16,04,18.50
2007,05,31,16,05,18.60
2007,05,31,16,06,18.80
2007,05,31,16,07,19.00
2007,05,31,16,08,19.00
2007,05,31,16,09,19.20
2007,05,31,16,10,19.40
2007,05,31,16,11,19.50
2007,05,31,16,12,19.40
2007,05,31,16,13,19.40
2007,05,31,16,14,19.40
2007,05,31,16,15,19.40
2007,05,31,16,16,19.30
2007,05,31,16,17,19.30
2007,05,31,16,18,19.20
2007,05,31,16,19,19.20
2007,05,31,16,20,19.30
2007,05,31,16,21,19.20
2007,05,31,16,22,19.10
2007,05,31,16,23,19.10
2007,05,31,16,24,19.10
2007,05,31,16,25,19.20
2007,05,31,16,26,19.30
2007,05,31,16,27,19.40
2007,05,31,16,28,19.50
2007,05,31,16,29,19.60
2007,05,31,16,30,19.60
2007,05,31,16,31,19.70
2007,05,31,16,32,19.80
2007,05,31,16,33,19.90
2007,05,31,16,34,19.90
2007,05,31,16,35,20.00
2007,05,31,16,36,20.00
2007,05,31,16,37,20.10
2007,05,31,16,38,20.20
2007,05,31,16,39,20.30
2007,05,31,16,40,20.30
2007,05,31,16,41,20.30
2007,05,31,16,42,20.40
2007,05,31,16,43,20.50
2007,05,31,16,44,20.60
2007,05,31,16,45,20.80
2007,05,31,16,46,20.80
2007,05,31,16,47,20.90
2007,05,31,16,48,21.00
2007,05,31,16,49,21.10
2007,05,31,16,50,21.20
2007,05,31,16,51,21.30
2007,05,31,16,52,21.40
2007,05,31,16,53,21.60
2007,05,31,16,54,21.70
2007,05,31,16,55,21.80
2007,05,31,16,56,22.00
2007,05,31,16,57,22.10
2007,05,31,16,58,22.20
2007,05,31,16,59,22.30
2007,05,31,17,00,22.40
2007,05,31,17,01,22.60
2007,05,31,17,02,22.70
2007,05,31,17,03,22.80
2007,05,31,17,04,23.00
2007,05,31,17,05,23.20
2007,05,31,17,06,23.40
2007,05,31,17,07,23.60
2007,05,31,17,08,23.70
2007,05,31,17,09,23.80
2007,05,31,17,10,23.70
2007,05,31,17,11,23.70
2007,05,31,17,12,23.60
2007,05,31,17,13,23.50
2007,05,31,17,14,23.40
2007,05,31,17,15,23.30
2007,05,31,17,16,23.20
2007,05,31,17,17,23.10
2007,05,31,17,18,23.10
2007,05,31,17,19,23.10